Weather in Kutushi

Russia / Orenburg Oblast     52°26′28″N   51°59′17″E
temp.,
°C
wind,
m/s
gust,
m/s
humid.,
%
clouds,
%
prec.,
mm/h
press.,
hPa
HPBL,
m
4 march, thu
thu423:00−8wnw469185 0.5 1007110
02:00−8wnw5109311 0.0 1007246
05:00−12w479613 0.0 1009116
08:00−13wsw479722 0.0 1009107
11:00−8sw6119135 0.0 1009345
14:00−4sw8149275 0.0 1007589
17:00−3sw10159087 0.1 1006940
20:00−1wsw111795100 1.1 1004943
5 march, fri
fri523:000wsw111797100 2.3 1004999
02:00−1wsw91590100 0.2 1003896
05:00−2sw81589100 0.3 1004625
08:00−2sw81591100 0.1 1003576
11:00−1sw81397100 1.8 1003674
14:00+1wsw814100100 1.3 1003712
17:000wsw61194100 1.4 1005704
20:00−3n3797100 0.5 1008201
6 march, sat
sat623:00−5nnw2396100 1.1 101195
02:00−10nw2393100 0.0 101321
05:00−12nw129386 0.0 101421
08:00−13wsw118981 0.0 101521
11:00−9sw228480 0.0 101669
14:00−6w228445 0.0 1015251
17:00−5nw118772 0.0 1014249
20:00−7n2394100 0.0 101343
7 march, sun
sun723:00−9n4793100 0.0 1012215
02:00−12n5993100 0.0 1011222
05:00−16n499297 0.0 1012165
08:00−19nnw479555 0.0 1014109
11:00−16nw369228 0.0 1016195
14:00−13wnw34870 0.0 1016235
17:00−12sw36890 0.0 1015245
20:00−15ssw59910 0.0 1015154
8 march, mon
mon823:00−15ssw5119513 0.0 1014225
02:00−11ssw71395100 0.1 1011390
05:00−8ssw91692100 0.2 1008715
08:00−6sw101792100 0.4 1006840
11:00−4sw101592100 0.9 1007936
14:00−3sw71089100 0.2 1008886
17:00−3ssw81395100 0.7 1007878
20:00−2ssw101694100 0.9 10041060